This demonstration page uses our WeatherBlox Daily Observations layout. Learn more.

Left ArrowRight Arrow

Hourly Observations for January 20, 2016

Temp ( °F °C ) Dew Point ( °F °C ) Humidity (%) Winds ( mph kmh ) Pressure ( in mb ) Visibility ( mi km ) Precip ( " mm )
12:59 am 00:59 Clear 25 -3.9 4 -15.6 40 40 NW 14 22 30.38 1029 10 16 0.00 0.00
1:59 am 01:59 Clear 25 -3.9 6 -14.4 44 44 NNW 15 24 30.38 1029 10 16 0.00 0.00
2:59 am 02:59 Clear 24 -4.4 6 -14.4 46 46 NW 17 28 30.37 1029 N/A 0.00 0.00
3:59 am 03:59 Clear 24 -4.4 7 -13.9 48 48 NNW 16 26 30.38 1029 10 16 0.00 0.00
4:59 am 04:59 Clear 23 -5 6 -14.4 48 48 N 14 22 30.37 1028 10 16 0.00 0.00
5:59 am 05:59 Partly Cloudy 23 -5 10 -12.2 57 57 NW 13 20 30.38 1029 10 16 0.00 0.00
6:59 am 06:59 Partly Cloudy 23 -5 9 -12.8 55 55 NNW 14 22 30.38 1029 10 16 0.00 0.00
7:59 am 07:59 Mostly Cloudy 24 -4.4 10 -12.2 55 55 NNW 12 19 30.38 1029 10 16 0.00 0.00
8:59 am 08:59 Mostly Cloudy 26 -3.3 12 -11.1 55 55 NNW 9 15 30.39 1029 10 16 0.00 0.00
9:59 am 09:59 Mostly Cloudy 27 -2.8 12 -11.1 53 53 N 6 9 30.38 1029 10 16 0.00 0.00
10:59 am 10:59 Mostly Cloudy 28 -2.2 13 -10.6 53 53 WNW 7 11 30.38 1029 10 16 0.00 0.00
11:59 am 11:59 Partly Cloudy 29 -1.7 13 -10.6 51 51 Calm 30.33 1027 10 16 0.00 0.00
12:59 pm 12:59 Partly Cloudy 31 -0.6 14 -10 49 49 SSW 5 7 30.29 1026 10 16 0.00 0.00
1:59 pm 13:59 Partly Cloudy 34 1.1 14 -10 44 44 W 6 9 30.24 1024 10 16 0.00 0.00
2:59 pm 14:59 Partly Cloudy 35 1.7 12 -11.1 38 38 WSW 7 11 30.21 1023 10 16 0.00 0.00
3:59 pm 15:59 Mostly Cloudy 35 1.7 13 -10.6 40 40 WSW 5 7 30.20 1023 10 16 0.00 0.00
4:59 pm 16:59 Mostly Cloudy 34 1.1 13 -10.6 42 42 WSW 6 9 30.19 1022 10 16 0.00 0.00
5:59 pm 17:59 Cloudy 35 1.7 13 -10.6 40 40 WSW 7 11 30.20 1023 10 16 0.00 0.00
6:59 pm 18:59 Cloudy 35 1.7 11 -11.7 37 37 W 5 7 30.20 1023 10 16 0.00 0.00
7:59 pm 19:59 Cloudy 34 1.1 11 -11.7 38 38 SW 6 9 30.19 1023 10 16 0.00 0.00
8:59 pm 20:59 Cloudy with Light Snow 32 0 19 -7.2 59 59 SW 9 15 30.19 1022 7 11 0.00 0.03
9:29 pm 21:29 Cloudy with Light Snow 30 -1.1 24 -4.4 79 79 SW 8 13 30.18 1022 5 8 0.00 0.03
9:59 pm 21:59 Cloudy with Light Snow 30 -1.1 24 -4.4 79 79 SW 9 15 30.18 1022 8 13 0.00 0.03
10:59 pm 22:59 Cloudy 31 -0.6 24 -4.4 76 76 SW 13 20 30.17 1022 10 16 0.00 0.03
11:59 pm 23:59 Mostly Cloudy 31 -0.6 24 -4.4 76 76 SW 10 17 30.15 1021 10 16 0.00 0.00

Powered by AerisWeather